[Iaude] MPEC U204: 2023 UF6 [a=1.25,e=0.35,i=23.4,H=25.7]
    mpec at marsden.cfa.harvard.edu 
    mpec at marsden.cfa.harvard.edu
       
    Sun Oct 22 18:12:24 EDT 2023
    
    
  
M.P.E.C. 2023-U204                             Issued 2023 October 22, 22:10 UT
     The Minor Planet Electronic Circulars contain information on unusual
         minor planets, routine data on comets and natural satellites,
         and occasional editorial announcements.  They are published
    on behalf of Division F of the International Astronomical Union by the
          Minor Planet Center, Smithsonian Astrophysical Observatory,
                          Cambridge, MA 02138, U.S.A.
			  
             Prepared using the Tamkin Foundation Computer Network
                              MPC at CFA.HARVARD.EDU
            URL https://www.minorplanetcenter.net/    ISSN 1523-6714
                                    2023 UF6                                    
Observations:
     K23U06F*KC2023 10 21.79061 01 20 43.65 +28 26 08.4          19.1 GXEU204L51
     K23U06F KC2023 10 21.79165 01 20 43.98 +28 25 39.5          18.8 GXEU204L51
     K23U06F KC2023 10 21.79269 01 20 44.36 +28 25 10.5          18.9 GXEU204L51
     K23U06F KC2023 10 21.86914 01 21 09.57 +27 48 46.8          18.8 GXEU204L51
     K23U06F KC2023 10 21.87086 01 21 10.13 +27 47 56.6          18.8 GXEU204L51
     K23U06F KC2023 10 21.87257 01 21 10.69 +27 47 06.8          18.8 GXEU204L51
     K23U06F 1C2023 10 21.95347 01 21 36.99 +27 06 51.0          18.7 GVEU204C40
     K23U06F 1C2023 10 21.95704 01 21 38.08 +27 05 00.9          18.6 GVEU204C40
     K23U06F 1C2023 10 21.96057 01 21 39.44 +27 03 13.2          18.8 GVEU204C40
     K23U06F KC2023 10 22.12524801 23 06.06 +25 37 32.6          19.2 VuEU204H21
     K23U06F KC2023 10 22.12683001 23 06.65 +25 36 41.8          19.4 VuEU204H21
     K23U06F KC2023 10 22.12841201 23 07.24 +25 35 51.0          19.4 VuEU204H21
     K23U06F KC2023 10 22.12999501 23 07.81 +25 34 59.6          19.3 VuEU204H21
     K23U06F KC2023 10 22.20677801 23 41.687+24 53 16.58         18.91GVEU204I52
     K23U06F KC2023 10 22.20728801 23 41.881+24 52 59.23         18.97GVEU204I52
     K23U06F 1C2023 10 22.20778901 23 42.022+24 52 42.13         19.22GVEU204703
     K23U06F KC2023 10 22.20780101 23 42.058+24 52 42.42         19.14GVEU204I52
     K23U06F KC2023 10 22.20832001 23 42.248+24 52 24.85         19.23GVEU204I52
     K23U06F 1C2023 10 22.21315201 23 43.948+24 49 46.34               VEU204703
     K23U06F 1C2023 10 22.21852901 23 45.920+24 46 43.82         19.25GVEU204703
     K23U06F 1C2023 10 22.22391001 23 47.857+24 43 43.50         19.33GVEU204703
     K23U06F KC2023 10 22.75576 01 28 13.56 +19 05 00.3          18.5 GXEU204G02
     K23U06F KC2023 10 22.75963 01 28 15.40 +19 02 17.6          18.4 GXEU204G02
     K23U06F KC2023 10 22.76350 01 28 17.24 +18 59 33.7          18.9 GXEU204G02
     K23U06F KC2023 10 22.77777 01 28 26.71 +18 49 59.4          18.4 GVEU204C82
     K23U06F KC2023 10 22.77787 01 28 26.81 +18 49 53.4          18.3 GVEU204C82
     K23U06F KC2023 10 22.79278701 28 33.259+18 38 18.71         18.3 GVEU204Z80
     K23U06F KC2023 10 22.79908801 28 36.338+18 33 48.53         18.9 GVEU204Z80
     K23U06F KC2023 10 22.81104901 28 42.461+18 25 11.28         18.4 GVEU204J95
     K23U06F KC2023 10 22.81259001 28 43.217+18 24 05.04         18.0 GVEU204J95
     K23U06F KC2023 10 22.81412001 28 44.002+18 22 58.51         18.5 GVEU204J95
     K23U06F KC2023 10 22.81562901 28 44.748+18 21 52.81         18.7 GVEU204J95
     K23U06F KC2023 10 22.83785801 28 54.10 +18 06 19.0          18.6 GXEU204595
     K23U06F KC2023 10 22.84127801 28 55.68 +18 03 48.2          19.0 GXEU204595
     K23U06F KC2023 10 22.84470201 28 57.29 +18 01 18.1          19.1 GXEU204595
     K23U06F hC2023 10 22.86227601 29 05.41 +17 48 24.8          18.9 GVEU204L01
     K23U06F hC2023 10 22.86341101 29 05.93 +17 47 34.4          19.0 GVEU204L01
     K23U06F hC2023 10 22.86454701 29 06.46 +17 46 43.7          18.8 GVEU204L01
     K23U06F KC2023 10 22.86568101 29 07.86 +17 45 57.6          18.3 GVEU204104
     K23U06F hC2023 10 22.86568301 29 07.00 +17 45 52.7          18.7 GVEU204L01
     K23U06F hC2023 10 22.86682101 29 07.52 +17 45 03.1          18.8 GVEU204L01
     K23U06F KC2023 10 22.86768501 29 08.81 +17 44 28.3          18.5 GVEU204104
     K23U06F KC2023 10 22.86864 01 29 03.26 +17 43 50.5          18.2 GXEU204L51
     K23U06F KC2023 10 22.86993901 29 09.79 +17 42 48.0          18.2 GVEU204104
     K23U06F KC2023 10 22.87035 01 29 04.04 +17 42 33.9          18.4 GXEU204L51
     K23U06F KC2023 10 22.87206 01 29 04.79 +17 41 17.4          18.1 GXEU204L51
Observer details:
104 San Marcello Pistoiese.  Observers P. Bacci, M. Maestripieri.  Measurers
    P. Bacci, L. Tesi, G. Fagioli.  0.60-m F4 Reflector + CCD.
595 Farra d'Isonzo.  Observers E. Amodeo, G. D'Agostino, E. Pettarin.
    Measurer E. Pettarin.  0.61-m f/4.5 reflector + CCD.
703 Catalina Sky Survey.  Observer D. C. Fuls.  Measurers E. C. Beshore, D.
    Fay, J. B. Fazekas, D. C. Fuls, A. R. Gibbs, A. D. Grauer, H. Groeller, J.
    K. Hogan, R. A. Kowalski, S. M. Larson, G. J. Leonard, D. Rankin, R. L.
    Seaman, F. C. Shelly, K. W. Wierzchos.  0.68-m Schmidt + 10K CCD.
C40 Kuban State University Astrophysical Observatory.  Observers A. Ivanov, A.
    Barcov, V. Ivanov, V. Lysenko, N. Yakovenko, N. Ivanova, N. Gorbunov, G.
    Kurbatov, P. Shchukin, V. Roshchupko.  Measurer A. Ivanov.  0.51-m f/8
    reflector + CCD.
C82 Osservatorio Astronomico Nastro Verde, Sorrento.  Observer N. Ruocco.
    0.35-m f/6.3  Schmidt-Cassegrain + CCD.
G02 KYSUCE Observatory, Kysucke Nove Mesto.  Observer M. Urbanik.  0.40-m
    f/6.8 Corrected Dall-Kirkham + CCD.
H21 Astronomical Research Observatory, Westfield.  Observer R. Holmes.
    Measurers T. Linder, R. Holmes, L. Horn.  0.76-m f/3.0 astrograph + CCD.
I52 Steward Observatory, Mt. Lemmon Station.  Observer J. B. Fazekas.
    Measurers E. C. Beshore, D. Fay, J. B. Fazekas, D. C. Fuls, A. R. Gibbs,
    A. D. Grauer, H. Groeller, J. K. Hogan, R. A. Kowalski, S. M. Larson, G.
    J. Leonard, D. Rankin, R. L. Seaman, F. C. Shelly, K. W. Wierzchos.  1.0-m
    prime focus + CCD.
J95 Great Shefford.  Observer P. Birtwhistle.  0.41-m f/6.3 Schmidt-Cassegrain
    + CCD.
L01 Visnjan Observatory, Tican.  Observer K. Korlevic.  1.0-m f/2.9 reflector
    + CCD.
L51 MARGO, Nauchnyi.  Observer G. Borisov.  0.50-m f/1.9 reflector + CCD.
Z80 Northolt Branch Observatory.  Observer G. Wells.  Measurers G. Wells, D.
    Bamberger.  0.25-m f/8.0 Ritchey-Chretien + CCD.
Orbital elements:
2023 UF6                                                 Earth MOID = 0.0199 AU
Epoch 2023 Sept. 13.0 TT = JDT 2460200.5                Veres                   
M 289.99276              (2000.0)            P               Q                  
n   0.70579368     Peri.  258.30531     -0.26334832     -0.94483057             
a   1.2493502      Node   209.32712     +0.96468073     -0.25922174             
e   0.3529733      Incl.   23.43419     -0.00622565     -0.20024806             
P   1.40           H   25.79          G   0.15           U   8                  
Residuals in seconds of arc
231021 L51  0.4-  0.2-    231022 703  0.5-  0.6-    231022 J95  0.1-  0.2-
231021 L51  0.7-  0.0     231022 I52  0.2-  0.0     231022 595  0.3-  0.2+
231021 L51  0.2-  0.1+    231022 703  0.6-  2.7+    231022 595  0.4-  0.5-
231021 L51  0.6-  0.1+    231022 703  0.0   0.1+    231022 595  0.2-  0.0
231021 L51  0.7-  0.0     231022 703  0.2+  0.5+    231022 L01  0.8-  0.4+
231021 L51  0.8-  0.1+    231022 G02  0.2+  0.6-    231022 L01  0.8-  0.4+
231021 C40  1.1+  0.8+    231022 G02  0.3-  0.1+    231022 L01  0.7-  0.2+
231021 C40  1.1-  0.5-    231022 G02  0.8-  0.0     231022 104  0.2-  0.4+
231021 C40  0.5+  0.3-    231022 C82  0.8+  0.4+    231022 L01  0.5-  0.4-
231022 H21  0.4-  0.1-    231022 C82  1.5+  1.4-    231022 L01  0.6-  0.6+
231022 H21  0.3-  0.0     231022 Z80  0.2+  0.0     231022 104  0.2+  0.2+
231022 H21  0.1-  0.1+    231022 Z80  0.8-  0.5+    231022 L51  0.7-  0.4+
231022 H21  0.2-  0.3-    231022 J95  0.3-  0.1-    231022 104  0.6-  0.2+
231022 I52  0.3-  0.3+    231022 J95  0.4-  0.4+    231022 L51  0.5-  0.3+
231022 I52  0.2-  0.0     231022 J95  0.1-  0.1+    231022 L51  0.8-  0.2+
Ephemeris:
2023 UF6                 a,e,i = 1.25, 0.35, 23                  q = 0.8084
Date    TT    R. A. (2000) Decl.     Delta      r    Elong.  Phase     V
2023 09 22    00 41 47.3 +54 07 30   0.3031  1.2014   124.4    43.6    25.3
...
2023 10 07    00 48 20.7 +53 48 04   0.1648  1.1156   131.4    42.2    23.8
...
2023 10 15    00 56 53.3 +49 21 13   0.09319 1.0691   138.6    38.1    22.3
...
2023 10 21    01 15 47.6 +33 46 32   0.04234 1.0345   156.0    23.1    20.1
2023 10 22    01 22 03.2 +26 45 06   0.03482 1.0288   163.2    16.2    19.4
2023 10 23    01 30 14.5 +16 06 14   0.02814 1.0231   173.4     6.4    18.6
...
2023 10 29    05 54 44.3 -79 26 12   0.03996 0.9893    82.9    94.8    22.2
...
2023 11 06    11 40 31.8 -71 47 52   0.1067  0.9462    62.1   112.2    25.1
...
2023 11 21    12 28 38.2 -64 45 48   0.2356  0.8753    55.2   112.0    26.7
M. P. C. Staff               (C) Copyright 2023 MPC           M.P.E.C. 2023-U204
    
    
More information about the Iaude
mailing list